Hourly Data Report for June 22, 2021

WRIGLEY A
NORTHWEST TERRITORIES
Current Station Operator: NAVCAN

63°12'35.000" N
123°26'12.000" W
149.70 m
2204005
YWY

Download Data

Hourly Data (June 2021)
Hourly Data Report for June 22, 2021
TIME
LST
Temp Definition
°C
Dew Point Definition
°C
Rel Hum Definition
%
Precip. Amount Definition
mm

Wind Dir Definition
10's deg

Wind Spd Definition
km/h
Visibility Definition
km
Stn Press Definition
kPa
Hmdx Definition


Wind Chill Definition


Weather Definition


00:00 15.4 12.7 84 LegendMM 32 10 LegendMM 98.42     LegendNANA
01:00 14.7 11.8 83 LegendMM 35 17 LegendMM 98.41     LegendNANA
02:00 14.1 10.3 78 LegendMM 33 12 LegendMM 98.45     LegendNANA
03:00 13.4 10.9 84 LegendMM 31 13 LegendMM 98.47     LegendNANA
04:00 12.9 11.5 91 LegendMM 35 9 LegendMM 98.56     LegendNANA
05:00 13.1 11.3 89 LegendMM 33 11 LegendMM 98.61     LegendNANA
06:00 13.2 11.0 86 LegendMM 34 16 LegendMM 98.69     LegendNANA
07:00 13.1 10.1 82 LegendMM 35 17 LegendMM 98.73     LegendNANA
08:00 13.3 7.4 67 LegendMM 36 17 LegendMM 98.81     LegendNANA
09:00 13.4 5.4 58 LegendMM 32 18 LegendMM 98.86     LegendNANA
10:00 LegendMM LegendMM LegendMM LegendMM LegendMM LegendMM LegendMM LegendMM     LegendNANA
11:00
12:00 LegendMM LegendMM LegendMM LegendMM LegendMM LegendMM LegendMM LegendMM     LegendNANA
13:00
14:00 13.1 4.5 56 LegendMM 33 9 LegendMM 99.01     LegendNANA
15:00 13.8 5.1 55 LegendMM 33 7 LegendMM 98.98     LegendNANA
16:00 16.1 6.2 52 LegendMM 31 17 LegendMM 98.93     LegendNANA
17:00 17.6 6.1 47 LegendMM 36 11 LegendMM 98.92     LegendNANA
18:00 18.2 6.7 47 LegendMM 35 16 LegendMM 98.92     LegendNANA
19:00 16.4 5.2 47 LegendMM 33 23 LegendMM 98.95     LegendNANA
20:00 16.5 6.3 51 LegendMM 34 11 LegendMM 98.96     LegendNANA
21:00 16.2 6.9 54 LegendMM 31 14 LegendMM 98.98     LegendNANA
22:00 14.6 7.7 63 LegendMM 31 8 LegendMM 98.97     LegendNANA
23:00 12.9 8.2 73 LegendMM 1 5 LegendMM 98.98     LegendNANA

Notes on Data Quality.

Legend

  • E = Estimated
  • M = Missing
  • NA = Not Available*
  • [empty] = Indicates an unobserved value
Date modified: